Location: Unspecified
(37.3333°N, 0.0000°E)
Time: 00:29:16
(UTC+00:00)

Tiangong 2 - Pass Details

Date: 25 May 2019
Orbit: 376 x 388 km, 42.8° (Epoch: 15 June)

Event Time Altitude Azimuth Distance (km) Brightness Sun altitude
Rises 20:44:47 0° 289° (WNW) 2,238 6.2 -16.2°
Reaches altitude 10° 20:47:01 10° 301° (WNW) 1,385 5.1 -16.5°
Maximum altitude 20:49:48 29° 4° (N) 731 2.9 -16.9°
Enters shadow 20:51:45 15° 58° (ENE) 1,106 3.2 -17.2°
